Terminal Aerodrome Forecast
Issued by NWS

Home | Current Version | Previous Version | Text Only | Print | Product List | Glossary On
Versions: 1 2 3 4 5 6 7 8 9 10 11 12 13 14 15 16 17 18 19 20 21 22 23 24 25 26 27 28 29 30 31 32 33 34 35 36 37 38 39 40 41 42 43 44 45 46 47 48 49 50
000
FTUS41 KCTP 290024 AAA
TAFBFD
TAF AMD
KBFD 290024Z 2900/2924 22003KT P6SM BKN025 OVC080
     FM290300 22004KT P6SM VCSH BKN025
     FM290600 17004KT 4SM -SN OVC020
     FM291400 16007KT P6SM OVC050=

USA.gov is the U.S. government's official web portal to all federal, state and local government web resources and services.